Flag for Brazil Weather past 2 weeks in Rio Branco, Acre, Brazil

Now
70 °F

Clear.


Feels Like: 70 °F
Forecast: 70 / 90 °F
Wind: No wind

Location: Rio Branco Airport

Current Time: Jul 23, 2014 at 3:08:50 AM

Latest Report: Jul 23, 2014 at 1:00 AM


Visibility: 10 mi

Pressure: 29.92 "Hg

Humidity: 94%

Dew point: 68 °F

Location of Rio BrancoLocation

Historic Weather in Rio Branco — Graph

°F

Rio Branco temperature yesterday

Maximum temperature yesterday: 86 °F (at 12:00 PM)
Minimum temperature yesterday: 66 °F (at 4:00 AM)
Average temperature yesterday: 74 °F

Past Weeks' High & Low Weather Summary

 TemperatureHumidityPressure
High91 °F (Jul 16, 1:00 PM)100% (Jul 8, 6:00 AM)30.18 "Hg (Jul 8, 6:00 AM)
Low59 °F (Jul 8, 6:00 AM)41% (Jul 18, 2:00 PM)29.89 "Hg (Jul 21, 2:00 PM)
Average72 °F78%30.01 "Hg
* Reported Midnight between Jul 7 and Jul 8 — Midnight between Jul 22 and Jul 23, Rio Branco, Weather by CustomWeather, © 2014

Note: Actual official high and low records may vary slightly from our data, if they occured in-between our weather recording intervals... More about our weather records

Advertising

Rio Branco weather history for previous 24 hours

 ConditionsComfort  
Time TempWeatherWind HumidityBarometerVisibility
12:00 AM
Jul 23
72 °FClear.No wind88%29.92 "Hg10 mi
11:00 PM
Jul 22
72 °FClear.No wind88%29.92 "Hg10 mi
10:00 PM73 °FClear.No wind83%29.92 "Hg10 mi
9:00 PM73 °FClear.No wind83%29.92 "Hg10 mi
8:00 PM73 °FClear.1 mph89%29.89 "Hg10 mi
7:00 PM77 °FClear.No wind79%29.89 "Hg10 mi
12:00 PM86 °FScattered clouds.7 mph55%29.95 "HgN/A
11:00 AM84 °FScattered clouds.6 mph58%29.98 "HgN/A
10:00 AM84 °FScattered clouds.5 mph58%29.98 "HgN/A
9:00 AM81 °FSunny.5 mph66%30.01 "Hg10 mi
8:00 AM77 °FSunny.2 mph79%29.98 "Hg10 mi
7:00 AM72 °FSunny.No wind88%29.95 "Hg10 mi
6:00 AM66 °FClear.No wind94%29.92 "Hg10 mi
5:00 AM66 °FClear.No wind94%29.92 "Hg10 mi
4:00 AM66 °FClear.No wind94%29.92 "Hg10 mi
3:00 AM72 °FClear.No wind83%29.92 "Hg10 mi
Weather by CustomWeather, © 2014

See weather overviewHow to use our weather pages